�N����,����,�~����,�C��,���x,�C��,����,���ϕ���,�ő�u�ԕ���,�ő厞����,���˗�,�I�_���x,�n�����x,�ő啗���N��,DTYPE
"22/04/11","00:10",0.0,13.8,73.3,1015.9,294.9,0.8,1.4,291.8,0.00,9.1,15.9,"00:01:12",1
"22/04/11","00:20",0.0,13.8,73.7,1015.9,301.8,1.0,1.8,323.7,0.00,9.2,15.6,"00:10:08",1
"22/04/11","00:30",0.0,13.7,74.2,1016.1,300.1,1.1,1.9,312.1,0.00,9.2,15.4,"00:23:52",1
"22/04/11","00:40",0.0,13.6,74.6,1015.9,323.0,1.0,1.7,330.6,0.00,9.2,15.5,"00:30:08",1
"22/04/11","00:50",0.0,13.5,75.4,1016.4,307.3,1.2,1.7,317.2,0.00,9.3,15.5,"00:42:34",1
"22/04/11","01:00",0.0,13.3,76.3,1015.9,300.4,1.2,1.9,314.0,0.00,9.3,15.4,"00:57:12",1
"22/04/11","01:10",0.0,13.6,76.6,1015.9,281.5,1.2,1.8,332.6,0.00,9.6,15.2,"01:09:30",1
"22/04/11","01:20",0.0,13.7,76.4,1015.6,316.5,1.6,2.1,317.6,0.00,9.7,15.4,"01:17:06",1
"22/04/11","01:30",0.0,13.6,76.6,1016.1,335.8,1.2,1.8,333.6,0.00,9.6,15.2,"01:22:32",1
"22/04/11","01:40",0.0,13.3,77.1,1015.9,325.8,1.2,1.6,331.1,0.00,9.4,15.1,"01:32:16",1
"22/04/11","01:50",0.0,13.2,77.5,1015.6,311.0,1.6,2.1,320.0,0.00,9.4,15.4,"01:45:08",1
"22/04/11","02:00",0.0,13.1,77.7,1015.6,288.7,1.2,1.7,317.8,0.00,9.3,15.0,"01:50:12",1
"22/04/11","02:10",0.0,13.3,77.6,1015.4,308.3,1.6,2.5,313.3,0.00,9.5,15.1,"02:02:44",1
"22/04/11","02:20",0.0,13.2,77.6,1015.6,318.6,1.8,2.5,309.7,0.00,9.4,15.0,"02:14:10",1
"22/04/11","02:30",0.0,13.3,77.4,1015.6,302.7,1.7,2.6,328.6,0.00,9.5,15.0,"02:28:46",1
"22/04/11","02:40",0.0,13.2,77.1,1015.9,292.8,1.5,2.7,312.6,0.00,9.3,15.1,"02:30:16",1
"22/04/11","02:50",0.0,13.2,76.9,1015.9,303.0,1.7,2.5,325.7,0.00,9.3,15.0,"02:43:04",1
"22/04/11","03:00",0.0,13.0,76.8,1015.9,315.2,1.6,2.4,313.1,0.00,9.1,15.0,"02:52:40",1
"22/04/11","03:10",0.0,12.7,77.4,1015.9,308.5,1.6,2.5,323.6,0.00,8.9,14.8,"03:09:56",1
"22/04/11","03:20",0.0,12.7,78.6,1015.9,303.5,2.2,3.3,313.2,0.00,9.1,14.8,"03:18:10",1
"22/04/11","03:30",0.0,12.8,78.9,1015.6,291.7,1.8,2.4,311.3,0.00,9.3,14.8,"03:29:16",1
"22/04/11","03:40",0.0,12.8,79.0,1015.9,299.6,1.8,2.9,322.0,0.00,9.3,14.7,"03:38:52",1
"22/04/11","03:50",0.0,12.6,79.1,1015.6,308.6,1.7,2.7,314.5,0.00,9.1,14.9,"03:40:58",1
"22/04/11","04:00",0.0,12.6,79.6,1015.9,293.9,1.8,2.4,300.4,0.00,9.2,14.6,"03:55:00",1
"22/04/11","04:10",0.0,12.6,79.9,1015.6,307.0,1.8,2.2,329.9,0.00,9.3,14.5,"04:06:24",1
"22/04/11","04:20",0.0,12.5,80.5,1015.4,328.9,1.5,2.1,319.9,0.00,9.3,14.7,"04:19:38",1
"22/04/11","04:30",0.0,12.0,81.1,1015.6,313.5,1.6,2.2,323.6,0.00,8.9,14.4,"04:20:32",1
"22/04/11","04:40",0.0,11.9,82.1,1015.6,292.7,1.6,2.2,309.7,0.00,9.0,14.5,"04:35:40",1
"22/04/11","04:50",0.0,12.0,82.6,1015.9,309.0,1.7,2.2,313.5,0.00,9.2,14.6,"04:40:08",1
"22/04/11","05:00",0.0,11.7,83.0,1015.4,314.4,1.8,2.5,320.8,0.00,9.0,14.3,"04:52:16",1
"22/04/11","05:10",0.0,11.5,83.8,1015.2,320.2,1.6,2.4,320.4,0.00,8.9,14.5,"05:09:58",1
"22/04/11","05:20",0.0,11.4,84.3,1015.4,321.8,1.6,2.0,333.1,0.00,8.9,14.5,"05:12:08",1
"22/04/11","05:30",0.0,11.4,85.0,1015.4,303.8,1.7,2.2,315.4,0.00,9.0,14.2,"05:24:24",1
"22/04/11","05:40",0.0,11.5,85.5,1015.4,297.6,1.7,2.2,305.8,0.00,9.2,14.3,"05:34:16",1
"22/04/11","05:50",0.0,11.5,85.9,1015.6,314.6,2.0,2.4,313.1,0.00,9.3,14.4,"05:49:52",1
"22/04/11","06:00",0.0,11.5,86.2,1015.6,315.4,2.1,2.8,305.4,0.00,9.3,14.2,"05:58:40",1
"22/04/11","06:10",0.0,11.8,86.6,1015.6,300.0,2.2,3.1,315.3,0.00,9.7,14.2,"06:02:32",1
"22/04/11","06:20",0.0,12.0,86.7,1015.9,297.9,2.1,2.8,294.0,0.00,9.9,14.2,"06:17:30",1
"22/04/11","06:30",0.0,12.1,86.9,1016.4,307.4,1.3,2.6,324.6,0.00,10.0,14.1,"06:20:56",1
"22/04/11","06:40",0.0,12.0,86.9,1015.9,310.6,1.0,2.0,333.3,0.01,9.9,14.0,"06:39:58",1
"22/04/11","06:50",0.0,12.2,87.4,1016.4,332.8,1.5,1.8,335.6,0.02,10.2,14.1,"06:40:08",1
"22/04/11","07:00",0.0,12.9,87.6,1016.1,329.3,1.3,2.0,323.4,0.03,10.9,14.1,"06:58:34",1
"22/04/11","07:10",0.0,13.4,87.6,1016.4,307.2,0.8,1.7,320.2,0.03,11.4,13.8,"07:00:08",1
"22/04/11","07:20",0.0,14.1,87.7,1016.8,296.6,0.7,1.3,323.3,0.05,12.1,14.1,"07:19:20",1
"22/04/11","07:30",0.0,14.6,87.3,1016.6,327.5,1.1,1.4,321.0,0.10,12.6,14.1,"07:20:08",1
"22/04/11","07:40",0.0,15.9,85.9,1017.1,321.4,0.8,1.2,322.3,0.14,13.6,13.8,"07:33:20",1
"22/04/11","07:50",0.0,16.7,83.6,1017.1,304.9,1.0,1.8,321.4,0.17,14.0,14.1,"07:44:32",1
"22/04/11","08:00",0.0,16.7,79.9,1017.1,274.6,0.5,1.1,116.2,0.15,13.3,14.0,"07:57:28",1
"22/04/11","08:10",0.0,16.9,76.9,1017.3,115.3,0.3,1.0,95.8,0.12,12.9,14.2,"08:00:08",1
"22/04/11","08:20",0.0,17.1,74.9,1016.6,112.1,0.5,0.9,113.0,0.13,12.7,13.9,"08:10:24",1
"22/04/11","08:30",0.0,17.7,73.0,1016.6,255.4,0.5,0.9,254.3,0.17,12.8,13.9,"08:21:52",1
"22/04/11","08:40",0.0,18.0,70.8,1016.4,186.8,0.5,1.3,123.3,0.16,12.7,14.2,"08:37:20",1
"22/04/11","08:50",0.0,18.3,69.6,1016.4,198.0,0.5,1.3,239.2,0.19,12.7,14.4,"08:45:44",1
"22/04/11","09:00",0.0,19.0,68.3,1016.1,146.3,0.6,2.0,143.8,0.25,13.1,14.0,"08:59:04",1
"22/04/11","09:10",0.0,19.0,66.7,1016.1,104.8,0.8,2.1,117.7,0.22,12.7,14.2,"09:07:28",1
"22/04/11","09:20",0.0,19.3,66.4,1016.1,148.5,0.8,1.9,122.5,0.25,12.9,14.3,"09:13:28",1
"22/04/11","09:30",0.0,19.7,64.6,1015.9,147.5,1.2,3.5,136.3,0.28,12.9,14.1,"09:29:28",1
"22/04/11","09:40",0.0,20.2,63.8,1015.6,148.2,0.8,2.0,122.2,0.33,13.2,14.5,"09:30:08",1
"22/04/11","09:50",0.0,20.3,62.8,1015.4,212.7,0.6,2.1,198.2,0.24,13.0,14.4,"09:49:52",1
"22/04/11","10:00",0.0,20.1,62.9,1015.2,176.1,1.1,2.5,188.4,0.22,12.9,14.4,"09:53:12",1
"22/04/11","10:10",0.0,20.3,62.2,1015.2,94.5,1.3,2.8,119.5,0.32,12.9,14.5,"10:08:32",1
"22/04/11","10:20",0.0,21.4,61.8,1014.9,205.0,1.1,2.9,160.5,0.49,13.8,14.6,"10:16:08",1
"22/04/11","10:30",0.0,21.4,59.3,1014.9,131.6,2.0,3.7,145.5,0.52,13.2,14.6,"10:23:20",1
"22/04/11","10:40",0.0,22.0,58.1,1014.5,177.5,1.1,2.6,108.6,0.53,13.4,14.7,"10:34:00",1
"22/04/11","10:50",0.0,22.0,57.3,1014.7,162.6,2.2,4.0,142.6,0.52,13.2,14.9,"10:42:56",1
"22/04/11","11:00",0.0,22.1,57.4,1013.8,166.8,2.2,4.3,127.6,0.53,13.3,14.8,"10:56:00",1
"22/04/11","11:10",0.0,22.7,55.2,1013.8,164.9,1.6,4.0,131.6,0.57,13.3,15.0,"11:09:20",1
"22/04/11","11:20",0.0,22.9,54.9,1013.5,152.8,2.0,4.0,126.4,0.57,13.4,15.2,"11:12:00",1
"22/04/11","11:30",0.0,23.4,51.3,1013.5,191.6,1.8,4.2,130.6,0.59,12.8,15.1,"11:28:32",1
"22/04/11","11:40",0.0,23.6,51.5,1013.3,138.2,2.5,4.9,125.1,0.60,13.1,15.3,"11:36:56",1
"22/04/11","11:50",0.0,23.8,48.9,1013.0,126.4,2.0,4.8,164.1,0.60,12.5,15.3,"11:43:44",1
"22/04/11","12:00",0.0,24.4,48.7,1013.0,180.2,1.7,3.9,135.8,0.61,12.9,15.6,"11:54:40",1
"22/04/11","12:10",0.0,24.3,50.2,1012.1,151.0,2.3,5.0,177.6,0.58,13.3,15.7,"12:05:36",1
"22/04/11","12:20",0.0,24.8,46.1,1012.1,147.5,1.6,3.2,158.9,0.58,12.5,15.9,"12:15:12",1
"22/04/11","12:30",0.0,25.1,42.9,1011.9,134.6,1.8,4.1,153.4,0.61,11.7,15.8,"12:27:36",1
"22/04/11","12:40",0.0,25.0,37.6,1011.6,149.1,2.6,4.2,119.4,0.58,9.6,16.1,"12:32:40",1
"22/04/11","12:50",0.0,25.7,38.7,1011.6,116.4,1.6,3.4,123.1,0.57,10.6,16.0,"12:49:04",1
"22/04/11","13:00",0.0,25.2,33.4,1011.2,124.2,2.6,4.8,121.9,0.51,8.0,16.1,"12:52:08",1
"22/04/11","13:10",0.0,25.1,34.2,1011.4,126.0,3.1,7.2,140.4,0.42,8.3,16.5,"13:01:44",1
"22/04/11","13:20",0.0,25.0,35.1,1011.2,180.5,2.8,7.2,144.9,0.39,8.6,16.5,"13:18:08",1
"22/04/11","13:30",0.0,25.7,34.7,1010.7,154.2,1.7,4.5,125.0,0.40,9.0,16.5,"13:24:08",1
"22/04/11","13:40",0.0,25.8,32.4,1010.9,181.3,2.2,4.8,180.7,0.38,8.1,16.5,"13:33:44",1
"22/04/11","13:50",0.0,25.4,29.8,1010.7,152.2,2.5,5.5,198.5,0.30,6.5,16.6,"13:49:52",1
"22/04/11","14:00",0.0,25.2,30.7,1010.7,160.2,2.5,3.6,130.1,0.26,6.8,16.7,"13:51:12",1
"22/04/11","14:10",0.0,25.1,29.4,1010.4,183.5,2.1,3.7,150.1,0.26,6.1,16.9,"14:00:32",1
"22/04/11","14:20",0.0,25.3,27.4,1010.9,205.7,1.5,2.9,193.1,0.25,5.2,16.7,"14:12:56",1
"22/04/11","14:30",0.0,25.2,25.7,1010.4,248.9,1.7,3.9,250.1,0.24,4.2,16.9,"14:22:48",1
"22/04/11","14:40",0.0,25.4,26.8,1010.2,261.2,1.3,3.2,304.3,0.28,5.0,16.9,"14:36:00",1
"22/04/11","14:50",0.0,25.1,25.6,1010.2,297.3,2.5,4.4,341.4,0.24,4.1,17.1,"14:41:52",1
"22/04/11","15:00",0.0,25.1,25.5,1010.0,254.4,2.2,4.1,318.8,0.25,4.0,17.0,"14:52:32",1
"22/04/11","15:10",0.0,25.1,26.0,1010.0,265.4,2.1,4.7,250.1,0.26,4.3,17.1,"15:03:44",1
"22/04/11","15:20",0.0,25.2,25.9,1010.0,254.7,2.0,3.6,234.3,0.26,4.3,17.1,"15:11:28",1
"22/04/11","15:30",0.0,24.9,28.0,1009.7,245.1,1.7,3.5,236.1,0.20,5.2,17.2,"15:29:04",1
"22/04/11","15:40",0.0,24.4,28.5,1009.7,310.4,2.5,4.4,332.0,0.17,5.0,17.2,"15:39:36",1
"22/04/11","15:50",0.0,24.2,30.0,1010.0,319.5,2.7,4.3,342.1,0.15,5.6,17.2,"15:47:52",1
"22/04/11","16:00",0.0,24.1,30.1,1009.7,287.5,2.0,4.4,350.9,0.13,5.5,17.2,"15:51:36",1
"22/04/11","16:10",0.0,23.9,30.7,1009.7,302.4,1.8,3.5,306.0,0.11,5.7,17.2,"16:05:28",1
"22/04/11","16:20",0.0,23.8,31.2,1010.0,318.6,2.5,4.3,336.0,0.09,5.8,17.2,"16:16:48",1
"22/04/11","16:30",0.0,23.5,34.6,1009.7,284.3,1.8,3.4,340.1,0.08,7.0,17.3,"16:21:04",1
"22/04/11","16:40",0.0,23.4,36.6,1010.2,267.6,2.0,3.4,252.4,0.07,7.8,17.2,"16:34:32",1
"22/04/11","16:50",0.0,23.1,38.2,1010.4,265.8,1.7,3.5,252.4,0.07,8.1,17.2,"16:40:24",1
"22/04/11","17:00",0.0,22.8,40.7,1010.0,246.1,2.1,4.2,223.3,0.06,8.8,17.1,"16:52:00",1
"22/04/11","17:10",0.0,22.4,42.5,1010.4,255.8,2.6,5.0,250.4,0.04,9.1,17.2,"17:03:20",1
"22/04/11","17:20",0.0,22.0,43.9,1010.2,268.1,2.2,3.9,262.3,0.03,9.2,17.1,"17:11:52",1
"22/04/11","17:30",0.0,21.8,44.5,1010.2,272.6,1.7,3.5,243.5,0.04,9.2,17.0,"17:23:20",1
"22/04/11","17:40",0.0,21.5,45.0,1010.2,309.8,2.5,5.0,336.6,0.03,9.1,17.2,"17:39:04",1
"22/04/11","17:50",0.0,21.1,46.5,1010.4,291.6,2.3,5.4,339.7,0.02,9.2,17.2,"17:45:28",1
"22/04/11","18:00",0.0,20.8,47.5,1010.7,299.3,2.5,5.2,322.2,0.01,9.3,17.0,"17:53:52",1
"22/04/11","18:10",0.0,20.6,48.3,1010.9,279.2,2.2,4.7,246.5,0.01,9.3,17.1,"18:02:40",1
"22/04/11","18:20",0.0,20.4,49.5,1011.2,296.7,2.3,4.4,268.3,0.00,9.5,17.0,"18:15:36",1
"22/04/11","18:30",0.0,20.2,50.3,1011.4,290.9,2.3,4.8,241.9,0.00,9.6,16.9,"18:24:32",1
"22/04/11","18:40",0.0,20.1,50.9,1011.2,301.0,2.2,3.6,309.9,0.00,9.7,16.9,"18:32:48",1
"22/04/11","18:50",0.0,19.9,51.9,1011.4,295.4,1.8,4.2,318.3,0.00,9.8,17.0,"18:42:48",1
"22/04/11","19:00",0.0,19.6,49.7,1011.6,294.6,1.6,3.5,279.5,0.00,8.9,17.0,"18:58:32",1
"22/04/11","19:10",0.0,19.5,48.9,1011.6,290.2,1.7,3.1,264.1,0.00,8.5,16.9,"19:05:04",1
"22/04/11","19:20",0.0,19.2,49.2,1011.6,319.1,1.3,2.5,345.8,0.00,8.3,17.0,"19:10:08",1
"22/04/11","19:30",0.0,19.1,49.7,1012.1,310.9,1.7,2.8,347.2,0.00,8.4,16.8,"19:29:04",1
"22/04/11","19:40",0.0,18.9,50.7,1011.9,325.5,1.7,3.7,341.2,0.00,8.5,16.6,"19:31:44",1
"22/04/11","19:50",0.0,18.7,53.9,1011.9,328.5,1.5,2.9,332.3,0.00,9.2,16.7,"19:41:28",1
"22/04/11","20:00",0.0,18.7,56.5,1012.1,275.2,1.6,3.1,248.9,0.00,9.9,16.7,"19:53:28",1
"22/04/11","20:10",0.0,18.5,57.9,1012.1,324.2,1.5,2.5,308.1,0.00,10.1,16.7,"20:05:36",1
"22/04/11","20:20",0.0,18.2,56.9,1012.3,347.5,1.3,2.5,347.0,0.00,9.6,16.7,"20:15:20",1
"22/04/11","20:30",0.0,18.0,57.6,1012.6,327.3,1.5,3.2,343.6,0.00,9.6,16.5,"20:29:44",1
"22/04/11","20:40",0.0,17.7,59.5,1012.8,330.4,2.1,3.4,315.1,0.00,9.8,16.7,"20:30:02",1
"22/04/11","20:50",0.0,17.8,61.2,1012.6,335.5,2.3,3.9,339.7,0.00,10.3,16.4,"20:43:04",1
"22/04/11","21:00",0.0,17.5,63.0,1012.8,332.8,1.7,2.7,319.8,0.00,10.4,16.4,"20:50:32",1
"22/04/11","21:10",0.0,17.5,64.5,1012.6,330.8,1.7,2.5,318.4,0.00,10.8,16.6,"21:06:16",1
"22/04/11","21:20",0.0,17.3,65.6,1012.6,332.8,1.7,2.9,336.9,0.00,10.8,16.3,"21:12:00",1
"22/04/11","21:30",0.0,17.2,66.6,1012.8,335.3,1.7,2.5,335.7,0.00,11.0,16.4,"21:23:44",1
"22/04/11","21:40",0.0,17.1,67.5,1012.3,347.0,1.0,1.7,2.2,0.00,11.1,16.2,"21:36:40",1
"22/04/11","21:50",0.0,17.0,68.3,1012.3,343.6,1.2,1.9,325.0,0.00,11.2,16.2,"21:48:56",1
"22/04/11","22:00",0.0,16.9,69.3,1012.8,338.1,1.5,2.7,323.7,0.00,11.3,16.3,"21:59:36",1
"22/04/11","22:10",0.0,16.7,70.0,1012.6,340.0,1.5,1.8,336.5,0.00,11.2,16.0,"22:01:20",1
"22/04/11","22:20",0.0,16.8,70.4,1012.6,338.8,1.8,3.3,342.3,0.00,11.4,16.3,"22:17:44",1
"22/04/11","22:30",0.0,16.5,71.3,1012.6,311.3,1.8,2.7,312.3,0.00,11.3,16.0,"22:26:56",1
"22/04/11","22:40",0.0,16.2,72.3,1012.3,297.2,1.5,2.2,275.9,0.00,11.3,16.3,"22:37:28",1
"22/04/11","22:50",0.0,16.0,73.1,1012.3,312.1,1.3,2.6,329.5,0.00,11.2,16.0,"22:40:24",1
"22/04/11","23:00",0.0,15.8,74.0,1012.3,305.0,1.2,1.8,320.0,0.00,11.2,15.9,"22:51:20",1
"22/04/11","23:10",0.0,15.7,75.2,1012.6,305.2,1.3,2.6,338.2,0.00,11.4,16.0,"23:09:52",1
"22/04/11","23:20",0.0,15.5,76.3,1012.6,322.8,1.3,2.5,334.6,0.00,11.4,16.0,"23:10:16",1
"22/04/11","23:30",0.0,15.3,77.2,1012.6,288.7,1.0,1.7,295.5,0.00,11.4,15.9,"23:29:52",1
"22/04/11","23:40",0.0,15.4,78.0,1012.8,293.6,1.3,2.1,299.8,0.00,11.6,16.1,"23:32:56",1
"22/04/11","23:50",0.0,15.1,78.5,1012.3,288.0,0.8,1.3,315.8,0.00,11.4,15.7,"23:49:44",1
"22/04/11","24:00",0.0,14.7,79.2,1012.3,326.4,1.6,2.1,337.4,0.00,11.2,15.9,"23:54:24",1
